Tracking 22842 objects as of 15-Apr-2021
HD Live streaming from Space Station
objects crossing your sky now

AALTO 1

Track AALTO 1 now!
10-day predictions
AALTO 1 is classified as:


NORAD ID: 42775
Int'l Code: 2017-036L
Perigee: 495.3 km
Apogee: 515.5 km
Inclination: 97.3 °
Period: 94.6 minutes
Semi major axis: 6876 km
RCS: Unknown
Launch date: June 23, 2017
Source: (FIN)
Launch site: SRIHARIKOTA (SRI)

Uplink (MHz):
Downlink (MHz): 437.220/2402.000
Beacon (MHz): 437.220
Mode: 9600bps FSK CW
Call sign: OH2A1S
Status: Active

aabbcc
Your satellite tracking list
Your tracking list is empty




NASA's NSSDC Master Catalog

Two Line Element Set (TLE):
1 42775U 17036L   21104.67199061  .00001101  00000-0  50314-4 0  9999
2 42775  97.2547 153.1209 0014738  45.3793 314.8643 15.22513258211496
Source of the keplerian elements: AMSAT